"Period start","avg(HW err(1)/warn(2) (#))","avg(Visibility (m))","avg(Weather code (#))","avg(Precip intensity (mm/h))","min(HW err(1)/warn(2) (#))","max(HW err(1)/warn(2) (#))","std(HW err(1)/warn(2) (#))","med(HW err(1)/warn(2) (#))","min(Visibility (m))","max(Visibility (m))","std(Visibility (m))","med(Visibility (m))","min(Weather code (#))","max(Weather code (#))","std(Weather code (#))","med(Weather code (#))","min(Precip intensity (mm/h))","max(Precip intensity (mm/h))","std(Precip intensity (mm/h))","med(Precip intensity (mm/h))"
2017-02-12 00:00:00,2,21297,3,0.00,2,2,0,2,12971,29804,5736,19932,0,10,5,0,0.00,0.00,0.00,0.00
2017-02-12 00:10:00,2,33972,0,0.00,2,2,0,2,18653,50000,11728,34832,0,0,0,0,0.00,0.00,0.00,0.00
2017-02-12 00:20:00,2,38494,0,0.00,2,2,0,2,21836,45748,7596,41960,0,0,0,0,0.00,0.00,0.00,0.00
2017-02-12 00:30:00,2,41960,0,0.00,2,2,0,2,11827,50000,11677,46628,0,0,0,0,0.00,0.00,0.00,0.00
2017-02-12 00:40:00,2,49453,0,0.00,2,2,0,2,44982,50000,1496,50000,0,0,0,0,0.00,0.00,0.00,0.00
2017-02-12 00:50:00,2,48757,0,0.00,2,2,0,2,46268,50000,1513,49854,0,0,0,0,0.00,0.00,0.00,0.00
2017-02-12 01:00:00,2,39899,0,0.00,2,2,0,2,17809,50000,11120,44108,0,0,0,0,0.00,0.00,0.00,0.00
2017-02-12 01:10:00,2,41971,0,0.00,2,2,0,2,22325,50000,9893,47947,0,0,0,0,0.00,0.00,0.00,0.00
2017-02-12 01:20:00,2,36849,0,0.00,2,2,0,2,17965,49552,10408,41179,0,0,0,0,0.00,0.00,0.00,0.00
2017-02-12 01:30:00,2,28988,0,0.00,2,2,0,2,11093,38873,7400,29586,0,0,0,0,0.00,0.00,0.00,0.00
2017-02-12 01:40:00,2,29004,0,0.00,2,2,0,2,9729,45473,10573,31968,0,0,0,0,0.00,0.00,0.00,0.00
2017-02-12 01:50:00,2,47591,0,0.00,2,2,0,2,40905,50000,2940,49114,0,0,0,0,0.00,0.00,0.00,0.00
2017-02-12 02:00:00,2,43688,0,0.00,2,2,0,2,35425,49536,4817,44146,0,0,0,0,0.00,0.00,0.00,0.00
2017-02-12 02:10:00,2,44984,0,0.00,2,2,0,2,34545,50000,5287,46478,0,0,0,0,0.00,0.00,0.00,0.00
2017-02-12 02:20:00,2,40851,0,0.00,2,2,0,2,15883,50000,10555,44378,0,0,0,0,0.00,0.00,0.00,0.00
2017-02-12 02:30:00,2,45233,0,0.00,2,2,0,2,37364,50000,4046,46148,0,0,0,0,0.00,0.00,0.00,0.00
2017-02-12 02:40:00,2,45409,0,0.00,2,2,0,2,32987,50000,5252,47392,0,0,0,0,0.00,0.00,0.00,0.00
2017-02-12 02:50:00,2,44246,0,0.00,2,2,0,2,38782,48232,2624,44744,0,0,0,0,0.00,0.00,0.00,0.00
2017-02-12 03:00:00,2,42189,0,0.00,2,2,0,2,32836,50000,5421,42880,0,0,0,0,0.00,0.00,0.00,0.00
2017-02-12 03:10:00,2,47586,0,0.00,2,2,0,2,44185,50000,1743,47571,0,0,0,0,0.00,0.00,0.00,0.00
2017-02-12 03:20:00,2,48889,0,0.00,2,2,0,2,45996,50000,1455,49448,0,0,0,0,0.00,0.00,0.00,0.00
2017-02-12 03:30:00,2,47380,0,0.00,2,2,0,2,41813,50000,3010,48278,0,0,0,0,0.00,0.00,0.00,0.00
2017-02-12 03:40:00,2,33879,0,0.00,2,2,0,2,8911,50000,12980,36764,0,0,0,0,0.00,0.00,0.00,0.00
2017-02-12 03:50:00,2,43371,0,0.00,2,2,0,2,30606,50000,7049,45066,0,0,0,0,0.00,0.00,0.00,0.00
2017-02-12 04:00:00,2,39114,0,0.00,2,2,0,2,19910,50000,12281,46166,0,0,0,0,0.00,0.00,0.00,0.00
2017-02-12 04:10:00,2,49753,0,0.00,2,2,0,2,47981,50000,606,50000,0,0,0,0,0.00,0.00,0.00,0.00
2017-02-12 04:20:00,2,49722,0,0.00,2,2,0,2,48498,50000,558,50000,0,0,0,0,0.00,0.00,0.00,0.00
2017-02-12 04:30:00,2,49322,0,0.00,2,2,0,2,43714,50000,1872,50000,0,0,0,0,0.00,0.00,0.00,0.00
2017-02-12 04:40:00,2,49215,0,0.00,2,2,0,2,47031,50000,1186,50000,0,0,0,0,0.00,0.00,0.00,0.00
2017-02-12 04:50:00,2,49655,0,0.00,2,2,0,2,47536,50000,738,50000,0,0,0,0,0.00,0.00,0.00,0.00
2017-02-12 05:00:00,2,49936,0,0.00,2,2,0,2,49359,50000,192,50000,0,0,0,0,0.00,0.00,0.00,0.00
2017-02-12 05:10:00,2,50000,0,0.00,2,2,0,2,50000,50000,0,50000,0,0,0,0,0.00,0.00,0.00,0.00
2017-02-12 05:20:00,2,49837,0,0.00,2,2,0,2,48470,50000,457,50000,0,0,0,0,0.00,0.00,0.00,0.00
2017-02-12 05:30:00,2,49261,0,0.00,2,2,0,2,46753,50000,1202,50000,0,0,0,0,0.00,0.00,0.00,0.00
2017-02-12 05:40:00,2,49847,0,0.00,2,2,0,2,48962,50000,330,50000,0,0,0,0,0.00,0.00,0.00,0.00
2017-02-12 05:50:00,2,49925,0,0.00,2,2,0,2,49573,50000,152,50000,0,0,0,0,0.00,0.00,0.00,0.00
2017-02-12 06:00:00,2,48939,0,0.00,2,2,0,2,45933,50000,1279,49484,0,0,0,0,0.00,0.00,0.00,0.00
2017-02-12 06:10:00,2,49844,0,0.00,2,2,0,2,48441,50000,468,50000,0,0,0,0,0.00,0.00,0.00,0.00
2017-02-12 06:20:00,2,48154,0,0.00,2,2,0,2,46507,50000,1187,47910,0,0,0,0,0.00,0.00,0.00,0.00
2017-02-12 06:30:00,2,49532,0,0.00,2,2,0,2,46517,50000,1050,50000,0,0,0,0,0.00,0.00,0.00,0.00
2017-02-12 06:40:00,2,49905,0,0.00,2,2,0,2,49052,50000,284,50000,0,0,0,0,0.00,0.00,0.00,0.00
2017-02-12 06:50:00,2,49998,0,0.00,2,2,0,2,49977,50000,7,50000,0,0,0,0,0.00,0.00,0.00,0.00
2017-02-12 07:00:00,2,50000,0,0.00,2,2,0,2,50000,50000,0,50000,0,0,0,0,0.00,0.00,0.00,0.00
2017-02-12 07:10:00,2,50000,0,0.00,2,2,0,2,50000,50000,0,50000,0,0,0,0,0.00,0.00,0.00,0.00
2017-02-12 07:20:00,2,50000,0,0.00,2,2,0,2,50000,50000,0,50000,0,0,0,0,0.00,0.00,0.00,0.00
2017-02-12 07:30:00,2,50000,0,0.00,2,2,0,2,50000,50000,0,50000,0,0,0,0,0.00,0.00,0.00,0.00
2017-02-12 07:40:00,2,50000,0,0.00,2,2,0,2,50000,50000,0,50000,0,0,0,0,0.00,0.00,0.00,0.00
2017-02-12 07:50:00,2,50000,0,0.00,2,2,0,2,50000,50000,0,50000,0,0,0,0,0.00,0.00,0.00,0.00
2017-02-12 08:00:00,2,50000,0,0.00,2,2,0,2,50000,50000,0,50000,0,0,0,0,0.00,0.00,0.00,0.00
2017-02-12 08:10:00,2,50000,0,0.00,2,2,0,2,50000,50000,0,50000,0,0,0,0,0.00,0.00,0.00,0.00
2017-02-12 08:20:00,2,50000,0,0.00,2,2,0,2,50000,50000,0,50000,0,0,0,0,0.00,0.00,0.00,0.00
2017-02-12 08:30:00,2,50000,0,0.00,2,2,0,2,50000,50000,0,50000,0,0,0,0,0.00,0.00,0.00,0.00
2017-02-12 08:40:00,2,50000,0,0.00,2,2,0,2,50000,50000,0,50000,0,0,0,0,0.00,0.00,0.00,0.00
2017-02-12 08:50:00,2,50000,0,0.00,2,2,0,2,50000,50000,0,50000,0,0,0,0,0.00,0.00,0.00,0.00
2017-02-12 09:00:00,2,50000,0,0.00,2,2,0,2,50000,50000,0,50000,0,0,0,0,0.00,0.00,0.00,0.00
2017-02-12 09:10:00,2,50000,0,0.00,2,2,0,2,50000,50000,0,50000,0,0,0,0,0.00,0.00,0.00,0.00
2017-02-12 09:20:00,2,50000,0,0.00,2,2,0,2,50000,50000,0,50000,0,0,0,0,0.00,0.00,0.00,0.00
2017-02-12 09:30:00,2,50000,0,0.00,2,2,0,2,50000,50000,0,50000,0,0,0,0,0.00,0.00,0.00,0.00
2017-02-12 09:40:00,2,50000,0,0.00,2,2,0,2,50000,50000,0,50000,0,0,0,0,0.00,0.00,0.00,0.00
2017-02-12 09:50:00,2,50000,0,0.00,2,2,0,2,50000,50000,0,50000,0,0,0,0,0.00,0.00,0.00,0.00
2017-02-12 10:00:00,2,50000,0,0.00,2,2,0,2,50000,50000,0,50000,0,0,0,0,0.00,0.00,0.00,0.00
2017-02-12 10:10:00,2,50000,0,0.00,2,2,0,2,50000,50000,0,50000,0,0,0,0,0.00,0.00,0.00,0.00
2017-02-12 10:20:00,2,50000,0,0.00,2,2,0,2,50000,50000,0,50000,0,0,0,0,0.00,0.00,0.00,0.00
2017-02-12 10:30:00,2,50000,0,0.00,2,2,0,2,50000,50000,0,50000,0,0,0,0,0.00,0.00,0.00,0.00
2017-02-12 10:40:00,2,50000,0,0.00,2,2,0,2,50000,50000,0,50000,0,0,0,0,0.00,0.00,0.00,0.00
2017-02-12 10:50:00,2,49982,0,0.00,2,2,0,2,49825,50000,52,50000,0,0,0,0,0.00,0.00,0.00,0.00
2017-02-12 11:00:00,2,50000,0,0.00,2,2,0,2,50000,50000,0,50000,0,0,0,0,0.00,0.00,0.00,0.00
2017-02-12 11:10:00,2,50000,0,0.00,2,2,0,2,50000,50000,0,50000,0,0,0,0,0.00,0.00,0.00,0.00
2017-02-12 11:20:00,2,49161,0,0.00,2,2,0,2,41709,50000,2484,50000,0,0,0,0,0.00,0.00,0.00,0.00
2017-02-12 11:30:00,2,50000,0,0.00,2,2,0,2,50000,50000,0,50000,0,0,0,0,0.00,0.00,0.00,0.00
2017-02-12 11:40:00,2,50000,0,0.00,2,2,0,2,50000,50000,0,50000,0,0,0,0,0.00,0.00,0.00,0.00
2017-02-12 11:50:00,2,50000,0,0.00,2,2,0,2,50000,50000,0,50000,0,0,0,0,0.00,0.00,0.00,0.00
2017-02-12 12:00:00,2,50000,0,0.00,2,2,0,2,50000,50000,0,50000,0,0,0,0,0.00,0.00,0.00,0.00
2017-02-12 12:10:00,2,50000,0,0.00,2,2,0,2,50000,50000,0,50000,0,0,0,0,0.00,0.00,0.00,0.00
2017-02-12 12:20:00,2,50000,0,0.00,2,2,0,2,50000,50000,0,50000,0,0,0,0,0.00,0.00,0.00,0.00
2017-02-12 12:30:00,2,50000,0,0.00,2,2,0,2,50000,50000,0,50000,0,0,0,0,0.00,0.00,0.00,0.00
2017-02-12 12:40:00,2,50000,0,0.00,2,2,0,2,50000,50000,0,50000,0,0,0,0,0.00,0.00,0.00,0.00
2017-02-12 12:50:00,2,50000,0,0.00,2,2,0,2,50000,50000,0,50000,0,0,0,0,0.00,0.00,0.00,0.00
2017-02-12 13:00:00,2,50000,0,0.00,2,2,0,2,50000,50000,0,50000,0,0,0,0,0.00,0.00,0.00,0.00
2017-02-12 13:10:00,2,50000,0,0.00,2,2,0,2,50000,50000,0,50000,0,0,0,0,0.00,0.00,0.00,0.00
2017-02-12 13:20:00,2,49470,0,0.00,2,2,0,2,45217,50000,1426,50000,0,0,0,0,0.00,0.00,0.00,0.00
2017-02-12 13:30:00,2,50000,0,0.00,2,2,0,2,50000,50000,0,50000,0,0,0,0,0.00,0.00,0.00,0.00
2017-02-12 13:40:00,2,50000,0,0.00,2,2,0,2,50000,50000,0,50000,0,0,0,0,0.00,0.00,0.00,0.00
2017-02-12 13:50:00,2,50000,0,0.00,2,2,0,2,50000,50000,0,50000,0,0,0,0,0.00,0.00,0.00,0.00
2017-02-12 14:00:00,2,48998,0,0.00,2,2,0,2,39985,50000,3004,50000,0,0,0,0,0.00,0.00,0.00,0.00
2017-02-12 14:10:00,2,47326,0,0.00,2,2,0,2,31020,50000,5902,50000,0,0,0,0,0.00,0.00,0.00,0.00
2017-02-12 14:20:00,2,49050,0,0.00,2,2,0,2,41016,50000,2682,50000,0,0,0,0,0.00,0.00,0.00,0.00
2017-02-12 14:30:00,2,37738,0,0.00,2,2,0,2,8956,50000,13149,41857,0,0,0,0,0.00,0.00,0.00,0.00
2017-02-12 14:40:00,2,49956,0,0.00,2,2,0,2,49562,50000,131,50000,0,0,0,0,0.00,0.00,0.00,0.00
2017-02-12 14:50:00,2,50000,0,0.00,2,2,0,2,50000,50000,0,50000,0,0,0,0,0.00,0.00,0.00,0.00
2017-02-12 15:00:00,2,49979,0,0.00,2,2,0,2,49789,50000,63,50000,0,0,0,0,0.00,0.00,0.00,0.00
2017-02-12 15:10:00,2,49868,0,0.00,2,2,0,2,48682,50000,395,50000,0,0,0,0,0.00,0.00,0.00,0.00
2017-02-12 15:20:00,2,50000,0,0.00,2,2,0,2,50000,50000,0,50000,0,0,0,0,0.00,0.00,0.00,0.00
2017-02-12 15:30:00,2,50000,0,0.00,2,2,0,2,50000,50000,0,50000,0,0,0,0,0.00,0.00,0.00,0.00
2017-02-12 15:40:00,2,49796,0,0.00,2,2,0,2,48055,50000,581,50000,0,0,0,0,0.00,0.00,0.00,0.00
2017-02-12 15:50:00,2,50000,0,0.00,2,2,0,2,50000,50000,0,50000,0,0,0,0,0.00,0.00,0.00,0.00
2017-02-12 16:00:00,2,50000,0,0.00,2,2,0,2,50000,50000,0,50000,0,0,0,0,0.00,0.00,0.00,0.00
2017-02-12 16:10:00,2,50000,0,0.00,2,2,0,2,50000,50000,0,50000,0,0,0,0,0.00,0.00,0.00,0.00
2017-02-12 16:20:00,2,49771,0,0.00,2,2,0,2,48280,50000,512,50000,0,0,0,0,0.00,0.00,0.00,0.00
2017-02-12 16:30:00,2,49967,0,0.00,2,2,0,2,49674,50000,98,50000,0,0,0,0,0.00,0.00,0.00,0.00
2017-02-12 16:40:00,2,50000,0,0.00,2,2,0,2,50000,50000,0,50000,0,0,0,0,0.00,0.00,0.00,0.00
2017-02-12 16:50:00,2,49757,0,0.00,2,2,0,2,47722,50000,680,50000,0,0,0,0,0.00,0.00,0.00,0.00
2017-02-12 17:00:00,2,50000,0,0.00,2,2,0,2,50000,50000,0,50000,0,0,0,0,0.00,0.00,0.00,0.00
2017-02-12 17:10:00,2,30572,0,0.00,2,2,0,2,8053,50000,16332,27109,0,0,0,0,0.00,0.00,0.00,0.00
2017-02-12 17:20:00,2,11168,2,0.00,2,2,0,2,3658,30913,8729,8308,0,10,4,0,0.00,0.00,0.00,0.00
2017-02-12 17:30:00,2,8543,10,0.00,2,2,0,2,3875,16106,3458,7406,10,10,0,10,0.00,0.00,0.00,0.00
2017-02-12 17:40:00,2,15751,6,0.00,2,2,0,2,6698,34575,8550,12381,0,10,5,10,0.00,0.00,0.00,0.00
2017-02-12 17:50:00,2,28971,0,0.00,2,2,0,2,7032,50000,16635,32819,0,0,0,0,0.00,0.00,0.00,0.00
2017-02-12 18:00:00,2,39478,0,0.00,2,2,0,2,6869,50000,15927,50000,0,0,0,0,0.00,0.00,0.00,0.00
2017-02-12 18:10:00,2,26724,0,0.00,2,2,0,2,5373,43734,14419,30729,0,0,0,0,0.00,0.00,0.00,0.00
2017-02-12 18:20:00,2,6314,38,0.01,2,2,0,2,1980,10901,2476,6208,0,78,38,36,0.00,0.05,0.02,0.00
2017-02-12 18:30:00,2,6151,37,0.01,2,2,0,2,2644,15894,3561,5736,10,78,33,10,0.00,0.05,0.02,0.00
2017-02-12 18:40:00,2,8160,10,0.00,2,2,0,2,3668,14612,3960,6689,10,10,0,10,0.00,0.00,0.00,0.00
2017-02-12 18:50:00,2,21403,10,0.00,2,2,0,2,3286,45186,13577,19100,10,10,0,10,0.00,0.00,0.00,0.00
2017-02-12 19:00:00,2,45042,2,0.00,2,2,0,2,9835,50000,11984,50000,0,10,4,0,0.00,0.00,0.00,0.00
2017-02-12 19:10:00,2,4470,53,0.02,2,2,0,2,1348,14997,3949,3144,0,78,33,71,0.00,0.10,0.03,0.00
2017-02-12 19:20:00,2,9212,23,0.01,2,2,0,2,1677,21056,5736,8665,0,78,28,10,0.00,0.05,0.02,0.00
2017-02-12 19:30:00,2,27369,6,0.00,2,2,0,2,11625,44422,10300,27380,0,10,5,10,0.00,0.00,0.00,0.00
2017-02-12 19:40:00,2,48279,0,0.00,2,2,0,2,43434,50000,2311,50000,0,0,0,0,0.00,0.00,0.00,0.00
2017-02-12 19:50:00,2,50000,0,0.00,2,2,0,2,50000,50000,0,50000,0,0,0,0,0.00,0.00,0.00,0.00
2017-02-12 20:00:00,2,37193,0,0.00,2,2,0,2,16985,50000,14752,47414,0,0,0,0,0.00,0.00,0.00,0.00
2017-02-12 20:10:00,2,39052,0,0.00,2,2,0,2,25113,50000,6671,38220,0,0,0,0,0.00,0.00,0.00,0.00
2017-02-12 20:20:00,2,11088,0,0.00,2,2,0,2,5757,30996,7385,8451,0,0,0,0,0.00,0.00,0.00,0.00
2017-02-12 20:30:00,2,17390,10,0.00,2,2,0,2,6781,44906,11780,12953,10,10,0,10,0.00,0.00,0.00,0.00
2017-02-12 20:40:00,2,48354,1,0.00,2,2,0,2,42144,50000,2364,49460,0,10,3,0,0.00,0.00,0.00,0.00
2017-02-12 20:50:00,2,40564,0,0.00,2,2,0,2,13447,50000,14055,50000,0,0,0,0,0.00,0.00,0.00,0.00
2017-02-12 21:00:00,2,14258,0,0.00,2,2,0,2,6963,27438,5731,12672,0,0,0,0,0.00,0.00,0.00,0.00
2017-02-12 21:10:00,2,24372,0,0.00,2,2,0,2,10801,35837,9077,24152,0,0,0,0,0.00,0.00,0.00,0.00
2017-02-12 21:20:00,2,10867,0,0.00,2,2,0,2,4652,21338,4927,11167,0,0,0,0,0.00,0.00,0.00,0.00
2017-02-12 21:30:00,2,30998,0,0.00,2,2,0,2,15631,45521,7934,32615,0,0,0,0,0.00,0.00,0.00,0.00
2017-02-12 21:40:00,2,24977,0,0.00,2,2,0,2,19367,33491,5198,23502,0,0,0,0,0.00,0.00,0.00,0.00
2017-02-12 21:50:00,2,19225,0,0.00,2,2,0,2,12952,34985,7517,14959,0,0,0,0,0.00,0.00,0.00,0.00
2017-02-12 22:00:00,2,45029,0,0.00,2,2,0,2,31127,50000,6558,49150,0,0,0,0,0.00,0.00,0.00,0.00
2017-02-12 22:10:00,2,49844,0,0.00,2,2,0,2,48913,50000,325,50000,0,0,0,0,0.00,0.00,0.00,0.00
2017-02-12 22:20:00,2,49895,0,0.00,2,2,0,2,48982,50000,305,50000,0,0,0,0,0.00,0.00,0.00,0.00
2017-02-12 22:30:00,2,49718,0,0.00,2,2,0,2,47177,50000,847,50000,0,0,0,0,0.00,0.00,0.00,0.00
2017-02-12 22:40:00,2,48658,0,0.00,2,2,0,2,44817,50000,1922,49812,0,0,0,0,0.00,0.00,0.00,0.00
2017-02-12 22:50:00,2,38444,0,0.00,2,2,0,2,23827,46710,7316,41096,0,0,0,0,0.00,0.00,0.00,0.00
2017-02-12 23:00:00,2,31553,0,0.00,2,2,0,2,23838,41965,6265,30956,0,0,0,0,0.00,0.00,0.00,0.00
2017-02-12 23:10:00,2,32730,0,0.00,2,2,0,2,25037,39917,4193,31810,0,0,0,0,0.00,0.00,0.00,0.00
2017-02-12 23:20:00,2,16765,0,0.00,2,2,0,2,10471,21865,2896,17044,0,0,0,0,0.00,0.00,0.00,0.00
2017-02-12 23:30:00,2,10224,0,0.00,2,2,0,2,6974,14595,2565,9150,0,0,0,0,0.00,0.00,0.00,0.00
2017-02-12 23:40:00,2,14897,8,0.00,2,2,0,2,6895,36198,8686,11602,0,10,4,10,0.00,0.00,0.00,0.00
2017-02-12 23:50:00,2,45117,1,0.00,2,2,0,2,33241,50000,6065,48375,0,10,3,0,0.00,0.00,0.00,0.00
